sat.trackr.live / text

‹ back to catalog

SHIJIAN-30B (SJ-30B)

NORAD 66546 · 2025-266B

PAYLOAD ACTIVE UNKNOWN

§ Identity

Operator
Country
PRC
Launch date
2025-11-19
Launch site
JSC
Launch vehicle
Mass (kg)
RCS (m²)

External: N2YO · Heavens-Above · Gunter

§ Orbital elements

Epoch: 2026-09-20T22:05:06.069696Z

Period
95.01 min
Inclination
51.7949°
Eccentricity
0.0006226
Mean motion
15.15577689 rev/d
Perigee alt
514.9 km
Apogee alt
523.5 km
Semi-major
6,897.4 km
B*
2.7385e-4
RAAN
90.8753°
Arg perigee
204.9856°
Mean anomaly
155.0820°
Rev number
4,637

§ Raw data

SHIJIAN-30B (SJ-30B)1 66546U 25266B   26263.92020914  .00004958  00000+0  27385-3 0  99972 66546  51.7949  90.8753 0006226 204.9856 155.0820 15.15577689 46371

JSON: /api/v1/satellites/66546 · /tle

For live sub-satellite position, see the globe view (requires WebGL).

§ Visibility from observer

Set your observer location to see the next 7 days of passes ≥ 10°. The values pass through the URL so the page stays shareable.

No JS? Fill the form by hand. The geolocation button needs JavaScript.